Terug naar catalogus

STARLINK-32295

ActiefCommunicatieVLEO
NORAD 62147·PAYLOAD·🇺🇸 United States

Gelanceerd Nov 30, 2024 vanaf Cape Canaveral Space Force Station

Loading…

Volgende Passages (komende 24 uur)

TLE

VersSource: CelesTrak SupGP

Epoch: Sep 15, 2026, 02:47 UTC

1 62147C 24224J   26258.11645833 -.00004156  00000+0 -15056-3 0  2583
2 62147  43.0010 168.5738 0001369 275.3964 222.6023 15.27572028    10

Volg STARLINK-32295 in realtime met AllMySat

Download on the App Store